This is the latest recevied weather packets stored in our database for station/object W5CMS-13. If no packets are shown the sender has not sent any weather packets the latest 1 day(s).
| Time | Temp. | Humidity | Pressure | Rain* | Wind** | Luminosity | Snow |
|---|---|---|---|---|---|---|---|
| 1778002219 | 27.22° C | 75% | 1004.3 hPa | 0 mm | 1.34 m/s, 225° | - | - |
| 1778001620 | 26.67° C | 76% | 1004.4 hPa | 0 mm | 2.24 m/s, 225° | - | - |
| 1778001016 | 26.11° C | 76% | 1004.5 hPa | 0 mm | 1.79 m/s, 225° | - | - |
| 1778000416 | 26.11° C | 77% | 1004.3 hPa | 0 mm | 3.58 m/s, 225° | - | - |
| 1777999816 | 26.11° C | 76% | 1004.3 hPa | 0 mm | 3.13 m/s, 225° | - | - |
| 1777999216 | 26.11° C | 76% | 1004.2 hPa | 0 mm | 3.13 m/s, 225° | - | - |
| 1777998616 | 26.11° C | 77% | 1004.1 hPa | 0 mm | 2.24 m/s, 225° | - | - |
| 1777998016 | 26.11° C | 77% | 1004.2 hPa | 0 mm | 3.58 m/s, 225° | - | - |
| 1777997416 | 25.56° C | 77% | 1004.1 hPa | 0 mm | 2.68 m/s, 225° | - | - |
| 1777996817 | 25.56° C | 78% | 1004 hPa | 0 mm | 3.13 m/s, 225° | - | - |
| 1777996216 | 25° C | 78% | 1004 hPa | 0 mm | 3.13 m/s, 225° | - | - |
| 1777995616 | 25° C | 79% | 1003.8 hPa | 0 mm | 3.13 m/s, 225° | - | - |
| 1777995016 | 25° C | 79% | 1003.9 hPa | 0 mm | 2.24 m/s, 225° | - | - |
| 1777994416 | 25° C | 79% | 1004 hPa | 0 mm | 2.68 m/s, 225° | - | - |
| 1777993816 | 24.44° C | 80% | 1004.2 hPa | 0 mm | 3.13 m/s, 225° | - | - |
| 1777993216 | 24.44° C | 80% | 1004.2 hPa | 0 mm | 2.24 m/s, 225° | - | - |
| 1777992616 | 24.44° C | 81% | 1004.2 hPa | 0 mm | 1.79 m/s, 225° | - | - |
| 1777992016 | 23.89° C | 82% | 1004.1 hPa | 0 mm | 2.24 m/s, 225° | - | - |
| 1777991417 | 23.89° C | 82% | 1004 hPa | 0 mm | 2.24 m/s, 203° | - | - |
| 1777990816 | 23.89° C | 82% | 1004 hPa | 0 mm | 2.68 m/s, 225° | - | - |
| 1777990216 | 23.33° C | 83% | 1004.1 hPa | 0 mm | 1.79 m/s, 203° | - | - |
| 1777989616 | 22.78° C | 84% | 1003.9 hPa | 0 mm | 2.24 m/s, 225° | - | - |
| 1777989016 | 22.78° C | 85% | 1003.7 hPa | 0 mm | 1.34 m/s, 225° | - | - |
| 1777988416 | 22.78° C | 85% | 1003.9 hPa | 0 mm | 1.79 m/s, 203° | - | - |
| 1777987816 | 22.78° C | 85% | 1004.1 hPa | 0 mm | 2.24 m/s, 225° | - | - |
* Rain latest hour (hover to see other rain measurements)
** Current wind speed in m/s (hover to see current wind gust speed)